Weather reports worldwide

Advertisment
Lulea/Kallax, Sweden (2186): temperature & dewpoint: 16.07.2019 04:00:00 - 22.07.2019 04:00:00 (CEST)Lulea/Kallax, Sweden (2186): wind speed & gusts: 16.07.2019 04:00:00 - 22.07.2019 04:00:00 (CEST)Lulea/Kallax, Sweden (2186): wind direction: 16.07.2019 04:00:00 - 22.07.2019 04:00:00 (CEST)Lulea/Kallax, Sweden (2186): reduced air pressure: 16.07.2019 04:00:00 - 22.07.2019 04:00:00 (CEST)Lulea/Kallax, Sweden (2186): visibility: 16.07.2019 04:00:00 - 22.07.2019 04:00:00 (CEST)Lulea/Kallax, Sweden (2186): precipitation: 16.07.2019 04:00:00 - 22.07.2019 04:00:00 (CEST)
Date & Time tt [°C] td [°C] ff [km/h] ff [kn] fx [km/h] fx [kn] dd ppp [hPa] vv [km] rr [mm]
22.07.2019 04:00:00 14,3 12,4 0 0 7 4 N 1015,9 10 0,0
22.07.2019 03:00:00 15,4 13,2 4 2 7 4 - 1015,7 10 0,0
22.07.2019 02:00:00 16,0 13,5 0 0 11 6 N 1015,8 10 0,0
22.07.2019 01:00:00 16,1 13,6 4 2 7 4 S 1015,7 10 0,0
22.07.2019 00:00:00 16,8 13,9 5 3 14 8 S 1015,5 10 0,0
21.07.2019 23:00:00 17,1 14,2 8 4 14 8 S 1015,2 10 0,0
21.07.2019 22:00:00 18,1 13,6 9 5 14 8 SSE 1015,1 10 0,0
21.07.2019 21:00:00 18,9 13,1 11 6 18 10 SSE 1014,9 10 0,0
21.07.2019 20:00:00 19,7 12,7 11 6 25 14 S 1015,0 10 0,0
21.07.2019 19:00:00 20,2 12,7 15 8 32 18 S 1015,1 10 0,0
21.07.2019 18:00:00 20,3 13,3 15 8 29 16 S 1015,2 10 0,0
21.07.2019 17:00:00 21,1 12,8 13 7 25 14 S 1015,4 10 0,0
21.07.2019 16:00:00 21,4 12,8 15 8 32 18 S 1015,6 10 0,0
21.07.2019 15:00:00 21,4 13,6 21 11 29 16 S 1015,8 10 0,0
21.07.2019 14:00:00 20,7 12,9 16 9 29 16 S 1016,0 10 0,0
21.07.2019 13:00:00 21,4 13,3 22 12 29 16 S 1016,1 10 0,0
21.07.2019 12:00:00 20,6 13,3 16 9 25 14 S 1016,0 10 0,0
21.07.2019 11:00:00 20,4 14,1 15 8 22 12 S 1015,7 10 0,0
21.07.2019 10:00:00 19,5 14,9 14 8 18 10 SSE 1015,7 40 0,0
21.07.2019 09:00:00 19,3 14,8 11 6 18 10 SSE 1015,8 10 0,0
21.07.2019 08:00:00 18,4 14,5 13 7 14 8 SE 1015,5 10 0,0
21.07.2019 07:00:00 17,7 13,8 8 4 11 6 SE 1015,5 10 0,0
21.07.2019 06:00:00 16,9 13,8 4 2 14 8 - 1015,5 10 0,0
21.07.2019 05:00:00 16,3 13,4 8 4 14 8 S 1015,3 10 0,0
21.07.2019 04:00:00 16,2 13,3 11 6 18 10 S 1015,3 10 0,0
21.07.2019 03:00:00 16,0 13,5 11 6 14 8 S 1015,3 10 0,0
21.07.2019 02:00:00 16,2 13,3 9 5 18 10 S 1015,4 10 0,0
21.07.2019 01:00:00 16,0 13,1 11 6 18 10 SSE 1015,6 10 0,0
21.07.2019 00:00:00 16,3 12,7 9 5 14 8 S 1015,7 10 0,0
20.07.2019 23:00:00 16,8 12,3 9 5 18 10 S 1015,5 10 0,0
20.07.2019 22:00:00 16,8 12,3 11 6 18 10 SSE 1015,1 10 0,0
20.07.2019 21:00:00 17,6 12,5 11 6 18 10 S 1015,1 10 0,0
20.07.2019 20:00:00 18,0 12,9 9 5 22 12 S 1015,1 10 0,0
20.07.2019 19:00:00 18,7 12,4 13 7 25 14 S 1015,0 10 0,0
20.07.2019 18:00:00 19,5 12,7 18 10 25 14 S 1015,1 10 0,0
20.07.2019 17:00:00 19,7 12,2 16 9 25 14 S 1015,1 10 0,0
20.07.2019 16:00:00 19,5 11,3 18 10 25 14 S 1015,2 10 0,0
20.07.2019 15:00:00 19,6 11,4 21 11 29 16 S 1015,4 10 0,0
20.07.2019 14:00:00 19,8 11,0 21 11 29 16 S 1015,4 10 0,0
20.07.2019 13:00:00 19,6 10,6 16 9 25 14 SSW 1015,4 10 0,0
20.07.2019 12:00:00 19,4 10,4 16 9 32 18 S 1015,4 10 0,0
20.07.2019 11:00:00 19,0 9,2 13 7 22 12 S 1015,4 10 0,0
20.07.2019 10:00:00 18,9 11,0 13 7 18 10 S 1015,3 10 0,0
20.07.2019 09:00:00 18,8 11,4 11 6 14 8 S 1015,1 10 0,0
20.07.2019 08:00:00 18,6 10,7 8 4 22 12 S 1014,7 10 0,0
20.07.2019 07:00:00 17,0 11,9 5 3 11 6 S 1014,5 10 0,0
20.07.2019 06:00:00 16,6 11,3 2 1 7 4 SE 1014,3 10 0,0
20.07.2019 05:00:00 14,8 11,4 0 0 0 0 N 1014,4 10 0,0
20.07.2019 04:00:00 13,7 9,9 0 0 0 0 N 1014,4 10 0,0
20.07.2019 03:00:00 13,7 10,3 0 0 0 0 N 1014,4 10 0,0
20.07.2019 02:00:00 14,5 10,1 4 2 7 4 W 1014,3 10 0,0
20.07.2019 01:00:00 14,4 11,4 5 3 7 4 WSW 1014,2 10 0,0
20.07.2019 00:00:00 14,1 11,8 0 0 7 4 N 1014,2 10 0,0
19.07.2019 23:00:00 14,4 12,3 0 0 7 4 N 1014,0 10 0,0
19.07.2019 22:00:00 15,3 12,6 4 2 7 4 S 1013,8 10 0,0
19.07.2019 21:00:00 16,2 12,9 4 2 14 8 S 1013,7 10 0,0
19.07.2019 20:00:00 16,7 12,6 8 4 14 8 S 1013,7 10 0,0
19.07.2019 19:00:00 18,0 11,6 11 6 18 10 S 1013,5 10 0,0
19.07.2019 18:00:00 18,3 11,4 11 6 18 10 SSW 1013,7 10 0,0
19.07.2019 17:00:00 18,9 12,4 13 7 22 12 SSW 1013,8 10 0,0
19.07.2019 16:00:00 17,6 12,7 13 7 22 12 SSW 1014,0 10 0,0
19.07.2019 15:00:00 18,8 13,0 13 7 25 14 S 1014,0 10 0,0
19.07.2019 14:00:00 19,2 12,0 13 7 18 10 SSE 1014,2 10 0,0
19.07.2019 13:00:00 19,3 12,8 9 5 18 10 SSE 1014,3 10 0,0
19.07.2019 12:00:00 19,1 12,6 11 6 18 10 SE 1014,5 10 0,0
19.07.2019 11:00:00 18,7 12,2 8 4 14 8 SSE 1014,6 10 0,0
19.07.2019 10:00:00 17,9 12,8 4 2 11 6 - 1014,7 10 0,0
19.07.2019 09:00:00 17,3 12,2 5 3 14 8 ESE 1015,0 10 0,0
19.07.2019 08:00:00 16,4 12,7 8 4 14 8 E 1014,9 10 0,0
19.07.2019 07:00:00 15,4 13,4 2 1 11 6 - 1014,7 10 0,0
19.07.2019 06:00:00 13,7 11,9 4 2 11 6 - 1014,7 10 0,0
19.07.2019 05:00:00 11,4 10,1 4 2 11 6 NNW 1014,8 10 0,0
19.07.2019 04:00:00 11,0 9,3 8 4 7 4 NNW 1014,6 10 0,0
19.07.2019 03:00:00 10,9 9,0 4 2 7 4 NW 1014,7 10 0,0
19.07.2019 02:00:00 10,5 7,6 0 0 7 4 N 1014,7 10 0,0
19.07.2019 01:00:00 12,0 8,3 2 1 4 2 - 1014,8 10 0,0
19.07.2019 00:00:00 13,2 7,8 0 0 7 4 N 1014,7 10 0,0
18.07.2019 23:00:00 14,0 8,2 0 0 7 4 N 1014,5 10 0,0
18.07.2019 22:00:00 16,0 8,7 4 2 7 4 WSW 1014,3 10 0,0
18.07.2019 21:00:00 17,8 8,6 0 0 7 4 N 1014,1 10 0,0
18.07.2019 20:00:00 18,3 7,1 2 1 14 8 - 1014,2 10 0,0
18.07.2019 19:00:00 18,5 7,9 5 3 11 6 SSW 1014,2 10 0,0
18.07.2019 18:00:00 18,9 8,2 8 4 14 8 SSE 1014,3 10 0,0
18.07.2019 17:00:00 18,8 6,9 5 3 14 8 S 1014,4 10 0,0
18.07.2019 16:00:00 18,8 8,7 8 4 18 10 S 1014,6 10 0,0
18.07.2019 15:00:00 18,3 10,1 13 7 18 10 SSE 1014,7 10 0,0
18.07.2019 14:00:00 18,2 10,3 15 8 18 10 SSE 1014,7 10 0,0
18.07.2019 13:00:00 17,5 10,2 9 5 14 8 SE 1014,6 10 0,0
18.07.2019 12:00:00 18,0 10,0 9 5 - - E - 10 -
18.07.2019 11:00:00 17,7 10,6 5 3 14 8 SSE 1014,7 10 0,0
18.07.2019 10:00:00 16,8 10,4 5 3 11 6 E 1014,5 10 0,0
18.07.2019 09:00:00 16,1 10,4 4 2 7 4 - 1014,6 10 0,0
18.07.2019 08:00:00 14,6 10,2 4 2 11 6 NNW 1014,6 10 0,0
18.07.2019 07:00:00 13,0 9,8 4 2 14 8 - 1014,4 10 0,0
18.07.2019 06:00:00 12,0 10,2 8 4 14 8 N 1014,4 10 0,0
18.07.2019 05:00:00 9,9 9,4 8 4 11 6 NNW 1014,2 7 0,0
18.07.2019 04:00:00 9,3 8,8 5 3 7 4 NNW 1014,1 10 0,0
18.07.2019 03:00:00 9,3 8,7 4 2 11 6 NNW 1013,9 10 0,0
18.07.2019 02:00:00 9,3 8,5 5 3 7 4 NNW 1013,8 10 0,0
18.07.2019 01:00:00 8,8 8,0 0 0 7 4 N 1013,7 10 0,0
18.07.2019 00:00:00 10,3 8,7 4 2 7 4 NW 1013,6 10 0,0
17.07.2019 23:00:00 11,5 9,6 0 0 0 0 N 1013,3 10 0,0
17.07.2019 22:00:00 13,3 10,7 0 0 0 0 N 1013,2 10 0,0
17.07.2019 21:00:00 14,2 9,6 0 0 11 6 N 1013,1 10 0,0
17.07.2019 20:00:00 15,5 8,5 0 0 11 6 N 1012,9 10 0,0
17.07.2019 19:00:00 16,1 6,8 4 2 14 8 - 1012,8 10 0,0
17.07.2019 18:00:00 16,0 8,0 2 1 7 4 - 1012,6 10 0,0
17.07.2019 17:00:00 16,4 9,1 4 2 14 8 - 1012,8 10 0,0
17.07.2019 16:00:00 16,1 8,4 2 1 18 10 - 1012,8 10 0,0
17.07.2019 15:00:00 16,8 8,2 5 3 14 8 ESE 1012,9 10 0,0
17.07.2019 14:00:00 15,8 8,3 4 2 11 6 - 1013,2 10 0,0
17.07.2019 13:00:00 16,5 8,0 8 4 18 10 E 1013,1 10 0,0
17.07.2019 12:00:00 16,7 8,9 9 5 22 12 E 1013,1 10 0,0
17.07.2019 11:00:00 15,9 9,1 8 4 18 10 NE 1013,2 10 0,0
17.07.2019 10:00:00 15,0 9,8 8 4 14 8 N 1013,4 10 0,0
17.07.2019 09:00:00 14,3 10,1 5 3 14 8 N 1013,3 10 0,0
17.07.2019 08:00:00 13,3 9,5 9 5 18 10 N 1013,3 10 0,0
17.07.2019 07:00:00 12,9 9,3 11 6 18 10 N 1013,5 10 0,0
17.07.2019 06:00:00 12,4 9,2 9 5 14 8 N 1013,5 10 0,0
17.07.2019 05:00:00 12,1 9,5 8 4 14 8 N 1013,6 10 0,0
17.07.2019 04:00:00 11,9 8,9 8 4 11 6 N 1013,7 10 0,0
17.07.2019 03:00:00 10,9 8,8 8 4 14 8 N 1013,8 10 0,0
17.07.2019 02:00:00 10,1 7,9 5 3 11 6 N 1013,8 10 0,0
17.07.2019 01:00:00 11,3 8,0 2 1 4 2 N 1013,9 10 0,0
17.07.2019 00:00:00 11,1 8,7 0 0 4 2 N 1014,0 10 0,0
16.07.2019 23:00:00 12,4 8,7 0 0 7 4 N 1014,0 10 0,0
16.07.2019 22:00:00 13,3 9,0 0 0 7 4 N 1013,8 10 0,0
16.07.2019 21:00:00 14,3 9,1 0 0 11 6 N 1013,8 10 0,0
16.07.2019 20:00:00 15,1 9,7 8 4 14 8 S 1013,8 10 0,0
16.07.2019 19:00:00 16,5 7,7 8 4 14 8 SSE 1013,6 10 0,0
16.07.2019 18:00:00 17,5 6,7 8 4 14 8 ESE 1013,6 10 0,0
16.07.2019 17:00:00 17,8 6,6 9 5 14 8 SE 1013,3 10 0,0
16.07.2019 16:00:00 17,3 8,2 11 6 18 10 SSE 1013,4 10 0,0
16.07.2019 15:00:00 17,3 7,6 11 6 18 10 SSE 1013,5 10 0,0
16.07.2019 14:00:00 17,2 8,3 13 7 22 12 SSE 1013,7 10 0,0
16.07.2019 13:00:00 17,1 6,9 9 5 22 12 SE 1013,7 10 0,0
16.07.2019 12:00:00 17,2 8,1 13 7 22 12 SE 1013,6 10 0,0
16.07.2019 11:00:00 16,3 8,3 9 5 22 12 E 1013,6 10 0,0
16.07.2019 10:00:00 15,5 8,5 11 6 18 10 NE 1013,5 10 0,0
16.07.2019 09:00:00 15,1 8,6 9 5 18 10 NNE 1013,6 10 0,0
16.07.2019 08:00:00 14,1 8,5 9 5 18 10 NNE 1013,5 10 0,0
16.07.2019 07:00:00 12,5 8,0 8 4 14 8 N 1013,6 10 0,0
16.07.2019 06:00:00 11,1 7,2 8 4 18 10 N 1013,5 10 0,0
16.07.2019 05:00:00 10,4 7,5 11 6 14 8 N 1013,3 10 0,0
16.07.2019 04:00:00 8,0 6,9 8 4 14 8 N 1013,0 10 0,0

tt = temperature
td = dewpoint
ff = wind speed
fx = gusts
dd = wind direction
ppp = reduced air pressure
vv = visibility
rr = precipitation

Next stations